Tracking 31027 objects as of 19-Jul-2025
HD Live streaming from Space Station
objects crossing your sky now

ONEWEB-0329

Track ONEWEB-0329 now!
10-day predictions
ONEWEB-0329 is classified as:


NORAD ID: 49107
Int'l Code: 2021-075AJ
Perigee: 1,199.9 km
Apogee: 1,201.8 km
Inclination: 87.9 °
Period: 109.3 minutes
Semi major axis: 7571 km
RCS: Unknown
Launch date: August 21, 2021
Source: United Kingdom (UK)
Launch site: TYURATAM MISSILE AND SPACE COMPLEX (TTMTR)
Your satellite tracking list
FLOCK 3S 1
Track 1 satellite(s)




NASA's NSSDC Master Catalog

Two Line Element Set (TLE):
1 49107U 21075AJ  25199.59423760 -.00000304  00000-0 -81680-3 0  9993
2 49107  87.9043  72.2921 0001313  81.3411 278.7869 13.17650794189652
Source of the keplerian elements: AFSPC